DLH460 EDDM-KMIA

Flight info

Callsign DLH460
Flight time N/A
Altitude 38000
Route GIVMI6Q/08L GIVMI Y101 INBED DCT REKDI DCT LOHRE DCT BUB L608 DENUT L610 KOPUL DCT ENHAQ DCT GAJIT DCT BAPHU DCT ARKIL/M084F380 DCT DINIM/M084F390 DCT 51N020W 50N030W 49N040W 48N050W DCT NICSO/M084F400 DCT LOMPI M202 ONGOT DCT PADRK M203 SNAGY/N0477F400 BNFSH2
Aircraft A359/H-SADE2E3GHIJ2J3J4J5M1P2RWXYZ/LB1D1

Departure

Time 2026-05-01 07:38
Airport Munich Airport (EDDM)

Arrival

Time N/A
Airport Miami International Airport (KMIA)
Time Latitude Longitude Altitude Speed Heading
2026-05-01 07:23 48.35525 11.79648 1481 ft 2 kts 83°
2026-05-01 07:23 48.35522 11.79599 1476 ft 2 kts 66°
2026-05-01 07:24 48.35509 11.79585 1476 ft 2 kts 11°
2026-05-01 07:24 48.35493 11.79584 1476 ft 2 kts 357°
2026-05-01 07:24 48.35476 11.79586 1476 ft 2 kts 354°
2026-05-01 07:24 48.35460 11.79589 1479 ft 2 kts 354°
2026-05-01 07:25 48.35453 11.79590 1476 ft 0 kts 354°
2026-05-01 07:28 48.35455 11.79589 1476 ft 2 kts 354°
2026-05-01 07:29 48.35488 11.79584 1476 ft 8 kts 354°
2026-05-01 07:29 48.35554 11.79574 1485 ft 11 kts 354°
2026-05-01 07:29 48.35642 11.79560 1479 ft 14 kts 353°
2026-05-01 07:29 48.35746 11.79541 1479 ft 16 kts 353°
2026-05-01 07:30 48.35868 11.79518 1483 ft 19 kts 353°
2026-05-01 07:30 48.35998 11.79496 1484 ft 19 kts 353°
2026-05-01 07:30 48.36087 11.79470 1490 ft 7 kts 326°
2026-05-01 07:30 48.36099 11.79413 1481 ft 6 kts 273°
2026-05-01 07:31 48.36098 11.79381 1487 ft 7 kts 265°
2026-05-01 07:31 48.36077 11.79091 1478 ft 14 kts 263°
2026-05-01 07:32 48.36047 11.78713 1484 ft 25 kts 263°
2026-05-01 07:32 48.36026 11.78448 1483 ft 26 kts 263°
2026-05-01 07:33 48.35984 11.77898 1488 ft 27 kts 263°
2026-05-01 07:33 48.35963 11.77615 1486 ft 28 kts 263°
2026-05-01 07:33 48.35919 11.77049 1481 ft 22 kts 263°
2026-05-01 07:34 48.35928 11.76886 1481 ft 11 kts 301°
2026-05-01 07:34 48.35952 11.76847 1481 ft 0 kts 322°
2026-05-01 07:34 48.35953 11.76847 1481 ft 1 kts 323°
2026-05-01 07:35 48.35988 11.76827 1479 ft 10 kts 347°
2026-05-01 07:35 48.36059 11.76812 1489 ft 11 kts 352°
2026-05-01 07:35 48.36140 11.76797 1482 ft 12 kts 353°
2026-05-01 07:35 48.36227 11.76789 1483 ft 12 kts 359°
2026-05-01 07:36 48.36271 11.76793 1487 ft 5 kts 18°
2026-05-01 07:36 48.36282 11.76820 1480 ft 3 kts 69°
2026-05-01 07:36 48.36282 11.76834 1483 ft 0 kts 85°
2026-05-01 07:37 48.36282 11.76835 1483 ft 2 kts 85°
2026-05-01 07:37 48.36297 11.77056 1485 ft 47 kts 83°
2026-05-01 07:37 48.36357 11.77838 1483 ft 103 kts 84°
2026-05-01 07:38 48.36461 11.79167 1480 ft 151 kts 84°
2026-05-01 07:38 48.36592 11.80834 1962 ft 156 kts 84°
2026-05-01 07:38 48.36848 11.84155 2972 ft 178 kts 85°
2026-05-01 07:39 48.36982 11.85434 3196 ft 192 kts 78°
2026-05-01 07:39 48.38217 11.87587 3587 ft 232 kts 27°
2026-05-01 07:39 48.41567 11.86764 4593 ft 266 kts 337°
2026-05-01 07:40 48.42627 11.85717 4968 ft 275 kts 321°
2026-05-01 07:40 48.43895 11.83542 5669 ft 278 kts 309°
2026-05-01 07:40 48.45082 11.81225 6366 ft 280 kts 310°
2026-05-01 07:40 48.46289 11.78914 7010 ft 283 kts 310°
2026-05-01 07:41 48.47532 11.76598 7610 ft 285 kts 311°
2026-05-01 07:41 48.48805 11.74292 8271 ft 287 kts 312°
2026-05-01 07:41 48.51390 11.69683 9560 ft 292 kts 313°
2026-05-01 07:42 48.52728 11.67333 10207 ft 293 kts 313°
2026-05-01 07:42 48.54066 11.64991 10801 ft 296 kts 314°
2026-05-01 07:42 48.55418 11.62632 11379 ft 298 kts 314°
2026-05-01 07:42 48.56776 11.60237 11959 ft 301 kts 313°
2026-05-01 07:43 48.58145 11.57812 12414 ft 309 kts 313°
2026-05-01 07:43 48.59567 11.55288 12700 ft 322 kts 313°
2026-05-01 07:43 48.62573 11.49942 13304 ft 345 kts 313°
2026-05-01 07:44 48.65770 11.44251 13875 ft 365 kts 313°
2026-05-01 07:44 48.69116 11.38292 14653 ft 375 kts 314°
2026-05-01 07:45 48.70989 11.35541 15066 ft 376 kts 323°
2026-05-01 07:45 48.73044 11.33168 15497 ft 377 kts 327°
2026-05-01 07:45 48.75215 11.30942 15922 ft 379 kts 330°
2026-05-01 07:45 48.77449 11.28776 16369 ft 381 kts 331°
2026-05-01 07:46 48.79688 11.26629 16829 ft 383 kts 331°
2026-05-01 07:46 48.81947 11.24435 17270 ft 386 kts 330°
2026-05-01 07:46 48.86744 11.20823 18132 ft 386 kts 342°
2026-05-01 07:47 48.89269 11.19406 18556 ft 388 kts 344°
2026-05-01 07:47 48.91826 11.18081 18941 ft 389 kts 345°
2026-05-01 07:47 48.94413 11.16794 19295 ft 392 kts 345°
2026-05-01 07:47 48.97006 11.15516 19684 ft 393 kts 345°
2026-05-01 07:48 49.02233 11.12919 20451 ft 397 kts 345°
2026-05-01 07:48 49.04862 11.11594 20822 ft 399 kts 345°
2026-05-01 07:48 49.07505 11.10252 21184 ft 401 kts 345°
2026-05-01 07:49 49.10156 11.08898 21545 ft 403 kts 345°
2026-05-01 07:49 49.15487 11.06175 22285 ft 406 kts 345°
2026-05-01 07:49 49.18171 11.04800 22650 ft 408 kts 345°
2026-05-01 07:50 49.20870 11.03422 23018 ft 410 kts 345°
2026-05-01 07:50 49.26302 11.00627 23758 ft 414 kts 344°
2026-05-01 07:50 49.29036 10.99211 24083 ft 415 kts 344°
2026-05-01 07:51 49.31775 10.97791 24389 ft 417 kts 344°
2026-05-01 07:51 49.34522 10.96342 24682 ft 419 kts 342°
2026-05-01 07:51 49.37175 10.94455 24971 ft 424 kts 333°
2026-05-01 07:52 49.41722 10.88666 25568 ft 434 kts 315°
2026-05-01 07:52 49.43709 10.85153 25877 ft 436 kts 313°
2026-05-01 07:52 49.45627 10.81532 26188 ft 438 kts 311°
2026-05-01 07:53 49.49415 10.74156 26819 ft 441 kts 311°
2026-05-01 07:53 49.51326 10.70440 27128 ft 443 kts 311°
2026-05-01 07:53 49.53251 10.66723 27453 ft 444 kts 311°
2026-05-01 07:53 49.55187 10.63005 27767 ft 446 kts 311°
2026-05-01 07:54 49.59092 10.55539 28417 ft 449 kts 311°
2026-05-01 07:55 49.65002 10.44211 29419 ft 455 kts 311°
2026-05-01 07:55 49.68819 10.36380 30110 ft 460 kts 307°
2026-05-01 07:56 49.74126 10.23914 30996 ft 466 kts 306°
2026-05-01 07:56 49.77726 10.15538 31546 ft 469 kts 306°
2026-05-01 07:57 49.79549 10.11354 31809 ft 470 kts 306°
2026-05-01 07:57 49.83229 10.02941 32322 ft 473 kts 306°
2026-05-01 07:58 49.86929 9.94472 32814 ft 476 kts 306°
2026-05-01 07:58 49.90646 9.85923 33288 ft 479 kts 306°
2026-05-01 07:59 49.94359 9.77351 33971 ft 477 kts 306°
2026-05-01 07:59 49.98049 9.68804 34595 ft 475 kts 306°
2026-05-01 08:00 50.05335 9.51706 35677 ft 474 kts 302°
2026-05-01 08:01 50.08960 9.37367 36474 ft 476 kts 289°
2026-05-01 08:01 50.09909 9.32446 36703 ft 476 kts 288°
2026-05-01 08:01 50.10834 9.27497 36951 ft 475 kts 288°
2026-05-01 08:02 50.12670 9.17619 37437 ft 474 kts 288°
2026-05-01 08:02 50.13595 9.12682 37668 ft 473 kts 288°
2026-05-01 08:03 50.15446 9.02853 38103 ft 472 kts 288°
2026-05-01 08:03 50.16375 8.97925 38313 ft 472 kts 288°
2026-05-01 08:03 50.18230 8.88055 38396 ft 477 kts 288°
2026-05-01 08:04 50.21919 8.68247 38398 ft 476 kts 288°
2026-05-01 08:05 50.24667 8.53349 38403 ft 476 kts 287°
2026-05-01 08:06 50.27395 8.38414 38395 ft 476 kts 288°
2026-05-01 08:07 50.31010 8.18487 38392 ft 477 kts 287°
2026-05-01 08:08 50.33702 8.03494 38386 ft 477 kts 287°
2026-05-01 08:09 50.37231 7.83627 38381 ft 477 kts 287°
2026-05-01 08:09 50.38990 7.73635 38372 ft 476 kts 286°
2026-05-01 08:10 50.42500 7.53591 38371 ft 477 kts 286°
2026-05-01 08:11 50.45478 7.36353 38361 ft 477 kts 286°
2026-05-01 08:12 50.48068 7.21239 38354 ft 478 kts 286°
2026-05-01 08:13 50.50627 7.06191 38351 ft 478 kts 285°
2026-05-01 08:13 50.53180 6.91033 38341 ft 478 kts 285°
2026-05-01 08:14 50.54870 6.80923 38336 ft 478 kts 285°
2026-05-01 08:14 50.56554 6.70793 38335 ft 478 kts 285°
2026-05-01 08:15 50.59059 6.55609 38330 ft 479 kts 285°
2026-05-01 08:16 50.60723 6.45448 38325 ft 479 kts 285°
2026-05-01 08:16 50.62373 6.35308 38322 ft 479 kts 285°
2026-05-01 08:17 50.63731 6.26922 38316 ft 479 kts 284°
2026-05-01 08:17 50.65367 6.16752 38310 ft 479 kts 284°
2026-05-01 08:18 50.66999 6.06555 38308 ft 479 kts 284°
2026-05-01 08:19 50.70227 5.86193 38312 ft 479 kts 284°
2026-05-01 08:19 50.71825 5.76012 38310 ft 479 kts 284°
2026-05-01 08:20 50.73420 5.65793 38293 ft 479 kts 284°
2026-05-01 08:20 50.74499 5.58838 38293 ft 479 kts 284°
2026-05-01 08:21 50.76074 5.48640 38292 ft 479 kts 283°
2026-05-01 08:21 50.77646 5.38399 38291 ft 479 kts 283°
2026-05-01 08:22 50.79202 5.28195 38295 ft 479 kts 283°
2026-05-01 08:22 50.80755 5.17938 38295 ft 479 kts 283°
2026-05-01 08:23 50.82285 5.07773 38295 ft 479 kts 283°
2026-05-01 08:23 50.83820 4.97517 38292 ft 479 kts 283°
2026-05-01 08:24 50.85347 4.87238 38293 ft 480 kts 283°
2026-05-01 08:24 50.86865 4.76955 38293 ft 480 kts 283°
2026-05-01 08:25 50.88335 4.66919 38293 ft 480 kts 282°
2026-05-01 08:25 50.89947 4.56650 38293 ft 481 kts 288°
2026-05-01 08:26 50.92804 4.47064 38293 ft 482 kts 299°
2026-05-01 08:26 50.96248 4.37937 38293 ft 483 kts 301°
2026-05-01 08:27 50.99782 4.28859 38291 ft 484 kts 301°
2026-05-01 08:27 51.02709 4.21273 38285 ft 485 kts 300°
2026-05-01 08:28 51.06204 4.12123 38281 ft 485 kts 300°
2026-05-01 08:28 51.09685 4.02920 38278 ft 485 kts 300°
2026-05-01 08:29 51.13163 3.93706 38271 ft 486 kts 300°
2026-05-01 08:29 51.16632 3.84472 38272 ft 486 kts 300°
2026-05-01 08:30 51.20090 3.75231 38271 ft 486 kts 300°
2026-05-01 08:30 51.23266 3.65719 38271 ft 485 kts 290°
2026-05-01 08:31 51.25074 3.55405 38271 ft 483 kts 281°
2026-05-01 08:31 51.26470 3.44925 38273 ft 483 kts 280°
2026-05-01 08:32 51.27803 3.34409 38271 ft 483 kts 280°
2026-05-01 08:32 51.29127 3.23886 38269 ft 483 kts 279°
2026-05-01 08:33 51.30458 3.13348 38272 ft 484 kts 280°
2026-05-01 08:33 51.31789 3.02824 38266 ft 484 kts 279°
2026-05-01 08:34 51.32944 2.93644 38266 ft 484 kts 279°
2026-05-01 08:34 51.34254 2.83154 38269 ft 484 kts 279°
2026-05-01 08:35 51.35569 2.72543 38257 ft 484 kts 279°
2026-05-01 08:35 51.36873 2.61993 38259 ft 484 kts 279°
2026-05-01 08:36 51.38157 2.51493 38258 ft 484 kts 279°
2026-05-01 08:36 51.39442 2.40903 38252 ft 484 kts 279°
2026-05-01 08:37 51.40718 2.30311 38246 ft 484 kts 279°
2026-05-01 08:37 51.41986 2.19709 38242 ft 484 kts 279°
2026-05-01 08:38 51.43245 2.09102 38236 ft 485 kts 278°
2026-05-01 08:38 51.44494 1.98484 38247 ft 485 kts 279°
2026-05-01 08:39 51.45798 1.87886 38241 ft 485 kts 279°
2026-05-01 08:39 51.47090 1.77282 38230 ft 484 kts 278°
2026-05-01 08:40 51.48902 1.61347 38230 ft 484 kts 278°
2026-05-01 08:40 51.50106 1.50713 38233 ft 484 kts 278°
2026-05-01 08:41 51.51301 1.40070 38223 ft 484 kts 278°
2026-05-01 08:41 51.52489 1.29425 38236 ft 484 kts 278°
2026-05-01 08:42 51.53667 1.18771 38234 ft 484 kts 277°
2026-05-01 08:42 51.54020 1.08044 38211 ft 481 kts 266°
2026-05-01 08:43 51.53704 0.97332 38217 ft 480 kts 264°
2026-05-01 08:43 51.53273 0.86644 38212 ft 480 kts 264°
2026-05-01 08:44 51.52835 0.75912 38213 ft 481 kts 264°
2026-05-01 08:44 51.52410 0.65220 38210 ft 481 kts 264°
2026-05-01 08:45 51.51984 0.54520 38209 ft 481 kts 264°
2026-05-01 08:45 51.51547 0.43780 38210 ft 481 kts 264°
2026-05-01 08:46 51.51101 0.33078 38209 ft 481 kts 264°
2026-05-01 08:46 51.50644 0.22341 38213 ft 481 kts 264°
2026-05-01 08:47 51.50177 0.11621 38213 ft 482 kts 264°
2026-05-01 08:47 51.49703 0.00978 38210 ft 482 kts 263°
2026-05-01 08:48 51.49216 -0.09749 38209 ft 482 kts 263°
2026-05-01 08:48 51.48716 -0.20551 38185 ft 482 kts 263°
2026-05-01 08:49 51.48213 -0.31198 38212 ft 482 kts 263°
2026-05-01 08:49 51.47696 -0.41914 38211 ft 482 kts 263°
2026-05-01 08:50 51.47169 -0.52639 38213 ft 482 kts 263°
2026-05-01 08:50 51.46632 -0.63362 38211 ft 482 kts 263°
2026-05-01 08:51 51.46087 -0.74062 38206 ft 482 kts 263°
2026-05-01 08:51 51.45532 -0.84766 38184 ft 482 kts 263°
2026-05-01 08:52 51.44968 -0.95474 38185 ft 481 kts 263°
2026-05-01 08:52 51.44395 -1.06139 38188 ft 481 kts 263°
2026-05-01 08:53 51.43810 -1.16846 38182 ft 481 kts 263°
2026-05-01 08:53 51.43216 -1.27517 38178 ft 481 kts 263°
2026-05-01 08:54 51.42613 -1.38186 38170 ft 481 kts 263°
2026-05-01 08:54 51.42003 -1.48827 38165 ft 480 kts 263°
2026-05-01 08:55 51.41380 -1.59499 38161 ft 480 kts 263°
2026-05-01 08:55 51.40663 -1.70114 38157 ft 478 kts 258°
2026-05-01 08:56 51.38864 -1.80331 38159 ft 476 kts 250°
2026-05-01 08:56 51.36668 -1.90323 38162 ft 476 kts 248°
2026-05-01 08:57 51.34586 -2.00368 38162 ft 477 kts 255°
2026-05-01 08:57 51.33436 -2.10842 38165 ft 478 kts 259°
2026-05-01 08:58 51.32509 -2.21363 38161 ft 478 kts 260°
2026-05-01 08:58 51.31603 -2.31893 38162 ft 478 kts 260°
2026-05-01 08:59 51.30667 -2.42413 38161 ft 478 kts 260°
2026-05-01 08:59 51.29707 -2.52909 38179 ft 478 kts 259°
2026-05-01 09:00 51.28733 -2.63416 38182 ft 477 kts 259°
2026-05-01 09:00 51.27753 -2.73900 38186 ft 477 kts 259°
2026-05-01 09:01 51.26763 -2.84377 38182 ft 477 kts 259°
2026-05-01 09:01 51.25773 -2.94772 38178 ft 477 kts 259°
2026-05-01 09:02 51.24759 -3.05309 38173 ft 477 kts 259°
2026-05-01 09:02 51.23744 -3.15751 38179 ft 477 kts 259°
2026-05-01 09:03 51.22720 -3.26193 38181 ft 476 kts 259°
2026-05-01 09:03 51.21685 -3.36642 38176 ft 476 kts 258°
2026-05-01 09:04 51.20641 -3.47082 38178 ft 477 kts 258°
2026-05-01 09:04 51.19587 -3.57526 38175 ft 477 kts 258°
2026-05-01 09:05 51.18524 -3.67962 38175 ft 477 kts 258°
2026-05-01 09:05 51.17460 -3.78341 38162 ft 478 kts 258°
2026-05-01 09:06 51.16379 -3.88782 38169 ft 478 kts 258°
2026-05-01 09:06 51.15282 -3.99218 38184 ft 478 kts 258°
2026-05-01 09:07 51.14179 -4.09642 38181 ft 478 kts 257°
2026-05-01 09:07 51.13068 -4.20066 38182 ft 478 kts 257°
2026-05-01 09:08 51.11946 -4.30494 38185 ft 477 kts 257°
2026-05-01 09:08 51.10817 -4.40896 38191 ft 477 kts 257°
2026-05-01 09:09 51.09678 -4.51312 38195 ft 477 kts 257°
2026-05-01 09:09 51.08531 -4.61700 38191 ft 477 kts 257°
2026-05-01 09:10 51.07374 -4.72095 38192 ft 477 kts 256°
2026-05-01 09:10 51.06209 -4.82479 38192 ft 477 kts 256°
2026-05-01 09:11 51.05034 -4.92856 38190 ft 477 kts 256°
2026-05-01 09:11 51.03852 -5.03213 38193 ft 476 kts 256°
2026-05-01 09:12 51.02662 -5.13553 38191 ft 476 kts 256°
2026-05-01 09:12 51.01463 -5.23888 38188 ft 475 kts 255°
2026-05-01 09:13 51.00460 -5.32466 38184 ft 475 kts 255°
2026-05-01 09:13 50.99246 -5.42776 38189 ft 475 kts 255°
2026-05-01 09:14 50.98022 -5.53085 38185 ft 476 kts 255°
2026-05-01 09:14 50.96787 -5.63388 38186 ft 476 kts 255°
2026-05-01 09:15 50.95542 -5.73700 38184 ft 476 kts 255°
2026-05-01 09:15 50.94291 -5.84008 38181 ft 476 kts 254°
2026-05-01 09:16 50.93033 -5.94294 38177 ft 476 kts 254°
2026-05-01 09:17 50.91124 -6.09735 38177 ft 476 kts 254°
2026-05-01 09:17 50.89195 -6.25156 38177 ft 476 kts 254°
2026-05-01 09:18 50.87245 -6.40567 38174 ft 476 kts 254°
2026-05-01 09:19 50.85275 -6.55972 38175 ft 476 kts 254°
2026-05-01 09:20 50.83284 -6.71363 38170 ft 476 kts 254°
2026-05-01 09:21 50.80607 -6.91802 38174 ft 476 kts 253°
2026-05-01 09:21 50.78568 -7.07169 38165 ft 477 kts 253°
2026-05-01 09:22 50.75816 -7.27660 38161 ft 477 kts 253°
2026-05-01 09:23 50.73730 -7.43002 38160 ft 477 kts 253°
2026-05-01 09:24 50.71620 -7.58354 38155 ft 477 kts 253°
2026-05-01 09:25 50.68778 -7.78783 38152 ft 477 kts 253°
2026-05-01 09:26 50.66641 -7.94034 38149 ft 478 kts 255°
2026-05-01 09:26 50.66191 -8.04551 38146 ft 487 kts 270°
2026-05-01 09:26 50.66484 -8.09890 38145 ft 489 kts 271°
2026-05-01 09:27 50.67749 -8.25858 38150 ft 490 kts 273°
2026-05-01 09:28 50.68617 -8.36527 38134 ft 490 kts 273°
2026-05-01 09:28 50.69441 -8.47202 38142 ft 490 kts 272°
2026-05-01 09:29 50.70633 -8.63227 38130 ft 490 kts 272°
2026-05-01 09:30 50.71803 -8.79263 38127 ft 491 kts 272°
2026-05-01 09:30 50.72955 -8.95311 38127 ft 491 kts 272°
2026-05-01 09:31 50.73708 -9.06004 38117 ft 490 kts 272°
2026-05-01 09:32 50.74819 -9.22065 38120 ft 490 kts 272°
2026-05-01 09:32 50.75909 -9.38129 38115 ft 490 kts 272°
2026-05-01 09:33 50.76624 -9.48834 38112 ft 490 kts 272°
2026-05-01 09:34 50.77679 -9.64921 38107 ft 491 kts 272°
2026-05-01 09:34 50.78715 -9.81055 38103 ft 492 kts 272°
2026-05-01 09:35 50.79725 -9.97124 38101 ft 492 kts 272°
2026-05-01 09:36 50.80389 -10.07904 38099 ft 493 kts 272°
2026-05-01 09:36 50.81043 -10.18691 38097 ft 493 kts 272°
2026-05-01 09:37 50.81687 -10.29464 38094 ft 493 kts 272°
2026-05-01 09:37 50.82635 -10.45645 38093 ft 492 kts 272°
2026-05-01 09:38 50.83559 -10.61822 38086 ft 492 kts 272°
2026-05-01 09:39 50.84461 -10.78002 38086 ft 492 kts 272°
2026-05-01 09:39 50.85049 -10.88771 38086 ft 492 kts 272°
2026-05-01 09:40 50.85914 -11.04962 38083 ft 492 kts 272°
2026-05-01 09:41 50.86478 -11.15761 38080 ft 492 kts 272°
2026-05-01 09:41 50.87305 -11.31962 38075 ft 493 kts 272°
2026-05-01 09:42 50.87845 -11.42790 38075 ft 493 kts 272°
2026-05-01 09:43 50.88891 -11.64371 38073 ft 493 kts 272°
2026-05-01 09:43 50.89401 -11.75205 38078 ft 494 kts 272°